CW3315 Weather Reports


Display with metric or nautical units.
time (UTC)temp
F
wind
direction
speed
MPH
gust
MPH
rain 1hr
in
rain 24hr
in
rain mn
in
humidity
%
barometer
mb
20200331165101 39 64 3.0 5.0 0.00 0.38 0.05 91 1013.6
20200331164517 38 168 1.0 2.0 0.00 0.38 0.05 91 1013.6
20200331164050 38 62 1.0 2.0 0.00 0.38 0.05 93 1013.8
20200331163526 38 127 2.0 3.0 0.00 0.38 0.05 94 1013.8
20200331163053 38 100 3.0 5.0 0.00 0.38 0.05 92 1013.8
20200331162515 38 156 3.0 5.0 0.00 0.38 0.05 93 1013.7
20200331162056 38 131 3.0 3.0 0.00 0.39 0.05 92 1013.7
20200331161516 38 126 1.0 2.0 0.00 0.39 0.05 93 1013.6
20200331161052 38 195 3.0 3.0 0.00 0.39 0.05 94 1013.6
20200331160521 37 239 1.0 2.0 0.00 0.39 0.05 96 1013.8
20200331160018 37 201 2.0 3.0 0.00 0.39 0.05 96 1013.8
20200331155520 37 119 3.0 5.0 0.00 0.39 0.05 96 1013.8
20200331155057 38 170 3.0 5.0 0.00 0.39 0.05 95 1013.9
20200331154518 38 153 3.0 5.0 0.00 0.39 0.05 94 1013.9
20200331154055 38 192 2.0 6.0 0.00 0.39 0.05 96 1013.9
20200331153525 37 183 4.0 6.0 0.00 0.39 0.05 95 1013.9
20200331153106 38 124 5.0 6.0 0.00 0.39 0.05 93 1014.0
20200331152519 38 170 3.0 6.0 0.00 0.39 0.05 93 1014.3
20200331152054 37 158 4.0 6.0 0.00 0.39 0.05 92 1014.3
20200331151522 38 125 4.0 6.0 0.00 0.39 0.05 91 1014.3
20200331151058 38 134 4.0 6.0 0.00 0.39 0.05 93 1014.3
20200331150522 38 64 3.0 6.0 0.00 0.39 0.05 90 1014.3
20200331150023 38 161 5.0 6.0 0.00 0.39 0.05 92 1014.3
20200331145519 38 106 4.0 6.0 0.00 0.39 0.05 93 1014.3
20200331145057 38 72 3.0 6.0 0.00 0.39 0.05 94 1014.2
20200331144524 37 136 5.0 6.0 0.00 0.39 0.05 93 1014.2
20200331144100 38 121 4.0 6.0 0.00 0.39 0.05 92 1014.5
20200331143522 38 100 5.0 6.0 0.00 0.39 0.05 95 1014.5
20200331143058 37 66 3.0 6.0 0.00 0.39 0.05 98 1014.5
20200331142521 35 68 3.0 6.0 0.00 0.39 0.05 99 1014.4
20200331142057 35 107 2.0 5.0 0.00 0.39 0.05 99 1014.4
20200331141521 35 125 3.0 5.0 0.00 0.39 0.05 99 1014.6
20200331141056 35 122 4.0 6.0 0.00 0.39 0.05 99 1014.6
20200331140522 35 120 4.0 6.0 0.00 0.39 0.05 99 1014.6
20200331140021 35 112 3.0 5.0 0.00 0.39 0.05 99 1014.6
20200331135518 35 132 3.0 6.0 0.00 0.39 0.05 99 1014.6
20200331135100 35 108 3.0 6.0 0.00 0.39 0.05 99 1014.5
20200331134519 36 92 3.0 5.0 0.00 0.39 0.05 98 1014.5
20200331134052 36 110 2.0 6.0 0.00 0.39 0.05 99 1014.4
20200331133524 36 112 3.0 5.0 0.00 0.39 0.05 99 1014.4
20200331133056 36 112 3.0 5.0 0.00 0.39 0.05 98 1014.4
20200331132517 36 99 3.0 5.0 0.00 0.39 0.05 99 1014.4
20200331132058 36 112 3.0 3.0 0.00 0.39 0.05 98 1014.4
20200331131521 35 94 3.0 5.0 0.00 0.40 0.05 99 1014.3
20200331131058 35 112 3.0 5.0 0.00 0.40 0.05 99 1014.3
20200331130521 35 65 2.0 3.0 0.00 0.40 0.05 99 1014.3
20200331130018 35 112 2.0 3.0 0.01 0.41 0.05 99 1014.3
20200331125520 34 108 3.0 3.0 0.01 0.41 0.05 99 1014.3
20200331125104 34 36 3.0 3.0 0.01 0.41 0.05 99 1014.5
20200331124523 34 112 4.0 6.0 0.01 0.41 0.05 99 1014.5
20200331124055 35 112 3.0 6.0 0.01 0.41 0.05 99 1014.5
20200331123521 35 111 3.0 5.0 0.01 0.41 0.05 99 1014.5
20200331123104 35 109 3.0 5.0 0.01 0.41 0.05 99 1014.5
20200331122518 35 144 3.0 5.0 0.01 0.41 0.05 99 1014.3
20200331122055 35 134 3.0 5.0 0.01 0.41 0.05 99 1014.3
20200331121523 35 112 3.0 3.0 0.01 0.41 0.05 99 1014.5
20200331121054 34 112 2.0 2.0 0.01 0.41 0.05 99 1014.5
20200331120525 34 85 2.0 3.0 0.01 0.41 0.05 99 1014.6
20200331120023 34 122 2.0 3.0 0.00 0.40 0.04 99 1014.6
20200331115518 33 112 2.0 2.0 0.00 0.44 0.04 99 1014.6
20200331115056 33 103 1.0 3.0 0.00 0.44 0.04 99 1014.3
20200331114520 33 67 2.0 3.0 0.00 0.45 0.04 99 1014.3
20200331114055 33 94 3.0 5.0 0.00 0.45 0.04 99 1014.5
20200331113518 33 100 2.0 3.0 0.00 0.45 0.04 99 1014.5
20200331113054 33 112 3.0 3.0 0.00 0.45 0.04 99 1014.5
20200331112523 33 117 2.0 3.0 0.00 0.45 0.04 99 1014.3
20200331112052 33 106 3.0 3.0 0.00 0.45 0.04 99 1014.3
20200331111524 33 168 2.0 3.0 0.00 0.45 0.04 99 1014.0
20200331111053 33 112 2.0 2.0 0.00 0.45 0.04 99 1014.0
20200331110519 33 109 2.0 2.0 0.00 0.45 0.04 99 1013.9
20200331110022 33 112 1.0 2.0 0.00 0.45 0.04 99 1013.9
20200331105527 33 112 3.0 3.0 0.00 0.45 0.04 99 1013.9
20200331105100 33 92 2.0 2.0 0.00 0.45 0.04 99 1013.9
20200331104517 33 101 2.0 2.0 0.00 0.45 0.04 99 1013.9
20200331104056 33 112 2.0 3.0 0.00 0.45 0.04 99 1013.7
20200331103525 33 115 1.0 2.0 0.00 0.45 0.04 99 1013.7
20200331103059 33 136 2.0 3.0 0.00 0.45 0.04 99 1013.7
20200331102521 33 123 2.0 5.0 0.00 0.45 0.04 99 1013.4
20200331102051 33 142 3.0 5.0 0.00 0.45 0.04 99 1013.4
20200331101523 34 100 3.0 5.0 0.00 0.45 0.04 99 1013.3
20200331101056 34 99 3.0 3.0 0.00 0.45 0.04 99 1013.3
20200331100520 34 112 2.0 3.0 0.00 0.45 0.04 99 1013.2
20200331100024 34 101 2.0 2.0 0.00 0.45 0.04 99 1013.1
20200331095523 34 119 2.0 2.0 0.00 0.45 0.04 99 1013.1
20200331095059 34 107 2.0 2.0 0.00 0.45 0.04 99 1013.1
20200331094520 34 97 2.0 2.0 0.00 0.45 0.04 99 1013.1
20200331094054 34 104 2.0 2.0 0.00 0.45 0.04 99 1013.0
20200331093525 34 106 2.0 3.0 0.00 0.45 0.04 99 1013.0
20200331093056 34 108 2.0 3.0 0.00 0.45 0.04 99 1013.0
20200331092520 35 119 2.0 2.0 0.00 0.45 0.04 99 1012.9
20200331091053 35 151 1.0 1.0 0.00 0.45 0.04 99 1012.8
20200331090520 35 112 0.0 1.0 0.00 0.45 0.04 99 1012.7
20200331090024 35 115 1.0 1.0 0.01 0.45 0.04 99 1012.7
20200331085517 35 112 0.0 1.0 0.01 0.45 0.04 99 1012.7
20200331085100 35 104 0.0 0.0 0.01 0.45 0.04 99 1012.6
20200331084525 35 112 0.0 0.0 0.01 0.45 0.04 99 1012.6
20200331084053 35 112 0.0 0.0 0.01 0.45 0.04 99 1012.7
20200331083524 35 122 0.0 0.0 0.01 0.45 0.04 99 1012.7
20200331083110 35 122 0.0 0.0 0.01 0.45 0.04 99 1012.7
20200331082520 35 116 0.0 0.0 0.01 0.45 0.04 99 1012.8
20200331082057 35 129 0.0 0.0 0.01 0.45 0.04 99 1012.8
20200331081523 35 112 0.0 0.0 0.01 0.45 0.04 99 1012.7
20200331081053 35 112 0.0 0.0 0.01 0.45 0.04 99 1012.7
20200331080523 35 112 0.0 0.0 0.01 0.45 0.04 99 1012.7
20200331080026 35 90 0.0 1.0 0.00 0.44 0.03 99 1012.7
20200331075520 35 112 0.0 1.0 0.00 0.44 0.03 99 1012.7
20200331075057 35 112 1.0 2.0 0.00 0.44 0.03 99 1012.9
20200331074522 35 100 1.0 2.0 0.00 0.44 0.03 99 1012.9
20200331074053 35 85 1.0 2.0 0.00 0.44 0.03 99 1012.9
20200331073525 35 129 1.0 2.0 0.00 0.44 0.03 99 1012.9
20200331073053 35 112 0.0 0.0 0.00 0.44 0.03 99 1012.9
20200331072521 35 112 0.0 1.0 0.01 0.44 0.03 99 1013.0
20200331072049 35 101 1.0 1.0 0.01 0.44 0.03 99 1013.0
20200331071521 35 123 0.0 1.0 0.01 0.44 0.03 99 1012.9
20200331071052 35 112 0.0 0.0 0.01 0.44 0.03 99 1012.9
20200331070518 35 112 0.0 0.0 0.01 0.44 0.03 99 1012.8
20200331070023 35 100 0.0 0.0 0.01 0.44 0.03 99 1012.8
20200331065519 35 95 0.0 0.0 0.01 0.44 0.03 99 1012.8
20200331065055 35 109 0.0 0.0 0.01 0.44 0.03 99 1013.0
20200331064520 35 66 0.0 0.0 0.01 0.44 0.03 99 1013.0
20200331064052 35 99 0.0 0.0 0.01 0.44 0.03 99 1012.9
20200331063521 35 110 0.0 0.0 0.01 0.44 0.03 99 1012.9
20200331063057 35 103 0.0 0.0 0.01 0.44 0.03 99 1012.9
20200331062524 36 112 0.0 0.0 0.00 0.43 0.02 99 1012.9
20200331062055 36 112 0.0 0.0 0.01 0.43 0.02 99 1012.9
20200331061525 36 112 0.0 0.0 0.01 0.43 0.02 99 1012.9
20200331061055 36 112 0.0 0.0 0.01 0.43 0.02 99 1012.9
20200331060523 36 99 0.0 0.0 0.01 0.43 0.02 99 1013.0
20200331060020 36 98 0.0 0.0 0.01 0.44 0.02 99 1013.0
20200331055519 36 90 0.0 0.0 0.01 0.44 0.02 99 1013.0
20200331055055 36 110 0.0 0.0 0.01 0.44 0.02 99 1012.9
20200331054519 36 60 0.0 0.0 0.01 0.44 0.02 99 1012.9
20200331054059 36 62 0.0 0.0 0.01 0.44 0.02 99 1013.2
20200331053523 36 112 0.0 0.0 0.02 0.44 0.02 99 1013.2
20200331053053 36 112 0.0 0.0 0.02 0.44 0.02 99 1013.2
20200331052519 36 106 0.0 1.0 0.02 0.44 0.02 99 1013.1
20200331052057 36 90 1.0 2.0 0.01 0.43 0.01 99 1013.1
20200331051528 36 96 0.0 1.0 0.01 0.43 0.01 99 1013.2
20200331051055 36 112 1.0 2.0 0.01 0.43 0.01 99 1013.2
20200331050520 36 112 0.0 0.0 0.01 0.43 0.01 99 1013.1
20200331050028 37 112 0.0 0.0 0.01 0.43 0.01 99 1013.1
20200331045516 37 129 0.0 0.0 0.01 0.43 0.01 99 1013.1
20200331045056 37 112 0.0 0.0 0.02 0.43 0.01 99 1013.1
20200331044529 37 112 0.0 0.0 0.02 0.43 0.01 99 1013.1
20200331044056 37 64 0.0 0.0 0.02 0.43 0.01 99 1013.1
20200331043522 37 101 0.0 0.0 0.01 0.43 0.00 99 1013.1
20200331043056 37 140 0.0 0.0 0.01 0.43 0.00 99 1013.1
20200331042517 37 5 0.0 0.0 0.01 0.43 0.00 99 1013.1
20200331042050 37 338 0.0 0.0 0.01 0.43 0.00 99 1013.1
20200331041518 37 45 0.0 0.0 0.02 0.43 0.00 99 1013.0
20200331041058 37 20 0.0 0.0 0.02 0.43 0.00 99 1013.0
20200331040525 37 17 0.0 0.0 0.02 0.43 0.00 99 1013.1
20200331040021 37 319 0.0 0.0 0.02 0.43 0.00 99 1013.1
20200331035526 37 35 1.0 1.0 0.02 0.43 0.43 99 1013.1
20200331035055 37 58 0.0 0.0 0.02 0.43 0.43 99 1013.0
20200331034520 37 97 0.0 0.0 0.01 0.42 0.42 99 1013.0
20200331034055 37 48 0.0 0.0 0.01 0.42 0.42 99 1013.0
20200331033521 37 90 0.0 1.0 0.01 0.42 0.42 99 1013.0
20200331033101 37 62 0.0 1.0 0.01 0.42 0.42 99 1013.0
20200331032521 37 173 1.0 1.0 0.01 0.42 0.42 99 1013.0
20200331032054 37 292 1.0 1.0 0.01 0.42 0.42 99 1013.0
20200331031521 37 292 0.0 0.0 0.00 0.41 0.41 99 1013.0
20200331031057 37 305 0.0 0.0 0.00 0.41 0.41 99 1013.0
20200331030522 37 336 1.0 2.0 0.00 0.41 0.41 99 1013.1
20200331030020 37 321 1.0 2.0 0.00 0.41 0.41 99 1013.1
20200331025519 37 316 1.0 1.0 0.00 0.41 0.41 99 1013.1
20200331025054 37 341 0.0 0.0 0.00 0.41 0.41 99 1013.2
20200331024520 37 302 0.0 0.0 0.00 0.41 0.41 99 1013.2
20200331024053 37 112 0.0 0.0 0.00 0.41 0.41 99 1013.2
20200331023515 37 117 0.0 0.0 0.00 0.41 0.41 99 1013.2
20200331023053 37 195 0.0 0.0 0.00 0.41 0.41 99 1013.2
20200331022520 37 52 0.0 0.0 0.00 0.41 0.41 99 1013.3
20200331022054 37 303 0.0 1.0 0.00 0.41 0.41 99 1013.3
20200331021523 37 284 0.0 1.0 0.00 0.41 0.41 99 1013.3
20200331021057 37 316 2.0 2.0 0.00 0.41 0.41 99 1013.3
20200331020521 37 320 0.0 0.0 0.00 0.41 0.41 99 1013.2
20200331020023 37 305 1.0 2.0 0.00 0.41 0.41 99 1013.2
20200331015523 37 267 0.0 2.0 0.00 0.41 0.41 99 1013.2
20200331015059 37 352 0.0 1.0 0.00 0.41 0.41 99 1013.2
20200331014526 37 270 0.0 1.0 0.00 0.41 0.41 99 1013.2
20200331014100 37 353 0.0 1.0 0.00 0.41 0.41 99 1013.1
20200331013521 38 289 0.0 1.0 0.00 0.41 0.41 99 1013.1
20200331013110 38 327 0.0 1.0 0.00 0.41 0.41 99 1013.1
20200331012522 38 348 1.0 1.0 0.00 0.41 0.41 99 1013.2
20200331012111 38 104 1.0 1.0 0.01 0.41 0.41 99 1013.2
20200331011528 38 310 1.0 1.0 0.02 0.41 0.41 99 1013.2
20200331011058 38 30 1.0 2.0 0.02 0.41 0.41 99 1013.2
20200331010527 38 292 1.0 2.0 0.02 0.41 0.41 99 1013.0
20200331010020 38 243 2.0 2.0 0.02 0.41 0.41 99 1012.9
20200331005522 38 225 1.0 1.0 0.02 0.41 0.41 99 1012.9
20200331004521 39 146 0.0 2.0 0.02 0.41 0.41 99 1012.7
20200331004109 39 90 1.0 2.0 0.02 0.41 0.41 99 1012.7
20200331003524 39 338 2.0 2.0 0.02 0.41 0.41 99 1012.7
20200331003105 39 187 1.0 1.0 0.02 0.41 0.41 99 1012.6
20200331002523 39 165 2.0 5.0 0.02 0.41 0.41 99 1012.5
20200331002056 39 123 3.0 5.0 0.02 0.41 0.41 99 1012.5
20200331001516 39 50 4.0 6.0 0.01 0.39 0.39 99 1012.4
20200331001054 39 218 2.0 2.0 0.01 0.39 0.39 99 1012.4
20200331000519 39 17 2.0 2.0 0.01 0.39 0.39 99 1012.1
20200331000026 39 320 1.0 1.0 0.01 0.39 0.39 99 1012.1
20200330235514 39 104 0.0 2.0 0.01 0.39 0.39 99 1012.1
20200330235054 39 315 1.0 2.0 0.01 0.39 0.39 99 1012.0
20200330234520 39 216 0.0 0.0 0.01 0.40 0.39 99 1012.0
20200330234056 39 269 0.0 0.0 0.01 0.41 0.39 99 1011.8
20200330233520 40 99 0.0 2.0 0.01 0.50 0.39 99 1011.8
20200330233055 40 29 2.0 2.0 0.02 0.60 0.39 99 1011.8
20200330232518 40 134 2.0 2.0 0.02 0.85 0.39 99 1011.7
20200330232054 40 166 1.0 2.0 0.02 0.85 0.39 99 1011.7
20200330231517 40 186 2.0 3.0 0.01 0.84 0.38 99 1011.6
20200330231055 40 343 3.0 6.0 0.03 0.84 0.38 97 1011.6
20200330230519 41 269 1.0 3.0 0.03 0.84 0.38 97 1011.5
20200330230021 41 42 2.0 5.0 0.04 0.84 0.38 98 1011.5
20200330225519 41 17 2.0 3.0 0.04 0.84 0.38 98 1011.5
20200330225054 41 286 3.0 6.0 0.04 0.84 0.38 98 1011.4
20200330224519 41 329 3.0 6.0 0.04 0.84 0.38 98 1011.4
20200330224058 41 158 3.0 6.0 0.04 0.84 0.38 99 1011.4
20200330223529 41 54 2.0 5.0 0.04 0.84 0.38 99 1011.4
20200330223108 42 23 2.0 3.0 0.03 0.83 0.37 99 1011.4
20200330222518 42 346 3.0 5.0 0.03 0.83 0.37 99 1011.1
20200330222057 42 285 2.0 3.0 0.03 0.83 0.37 99 1011.1
20200330221523 42 337 2.0 5.0 0.03 0.83 0.37 99 1010.9
20200330221052 42 22 2.0 3.0 0.01 0.81 0.35 99 1010.9
20200330220521 43 330 2.0 2.0 0.01 0.81 0.35 98 1010.7
20200330220025 43 210 2.0 3.0 0.00 0.80 0.34 96 1010.7
20200330215518 44 258 2.0 3.0 0.00 0.80 0.34 94 1010.7
20200330215056 44 221 1.0 2.0 0.00 0.80 0.34 93 1010.5
20200330214521 44 253 2.0 3.0 0.00 0.80 0.34 93 1010.5
20200330214056 44 214 0.0 2.0 0.00 0.80 0.34 93 1010.4
20200330213519 44 224 2.0 3.0 0.00 0.80 0.34 93 1010.4
20200330213057 44 208 0.0 0.0 0.00 0.80 0.34 92 1010.4
20200330212523 44 235 1.0 2.0 0.00 0.80 0.34 95 1010.2
20200330212056 43 112 2.0 2.0 0.00 0.80 0.34 97 1010.2
20200330211522 43 125 2.0 3.0 0.00 0.80 0.34 96 1010.2
20200330211103 43 127 2.0 3.0 0.00 0.80 0.34 97 1010.2
20200330210524 44 80 2.0 2.0 0.00 0.80 0.34 95 1010.3
20200330210023 44 136 2.0 2.0 0.00 0.80 0.34 96 1010.3
20200330205523 43 145 3.0 3.0 0.00 0.80 0.34 95 1010.3
20200330205102 44 147 1.0 1.0 0.00 0.80 0.34 91 1010.2
20200330204526 44 167 1.0 2.0 0.00 0.80 0.34 90 1010.2
20200330204101 44 194 0.0 2.0 0.00 0.80 0.34 93 1010.2
20200330203520 43 119 2.0 2.0 0.00 0.80 0.34 92 1010.2
20200330203010 44 206 2.0 2.0 0.00 0.80 0.34 92 1010.2
20200330202508 43 351 0.0 2.0 0.00 0.80 0.34 94 1010.3
20200330202010 42 190 0.0 2.0 0.01 0.80 0.34 94 1010.3
20200330201509 43 225 3.0 3.0 0.01 0.80 0.34 94 1010.4
20200330201009 43 252 2.0 5.0 0.01 0.80 0.34 97 1010.4
20200330200510 42 257 2.0 5.0 0.02 0.80 0.34 95 1010.3
20200330200013 42 233 2.0 5.0 0.02 0.80 0.34 97 1010.3
20200330195510 42 270 3.0 5.0 0.02 0.80 0.34 95 1010.3
20200330195010 42 195 4.0 6.0 0.03 0.80 0.34 95 1010.4
20200330194509 42 296 2.0 2.0 0.04 0.80 0.34 98 1010.4
20200330194009 41 216 3.0 5.0 0.06 0.80 0.34 97 1010.4
20200330193511 41 353 3.0 5.0 0.08 0.80 0.34 96 1010.4
20200330193010 41 34 2.0 3.0 0.11 0.80 0.34 98 1010.4
20200330192508 41 161 2.0 3.0 0.15 0.80 0.34 99 1010.3
20200330192016 40 270 2.0 3.0 0.15 0.79 0.33 99 1010.3
20200330191509 41 253 2.0 3.0 0.15 0.79 0.33 98 1010.4
20200330191010 40 2 3.0 7.0 0.15 0.79 0.33 98 1010.4
20200330190510 40 153 2.0 5.0 0.14 0.78 0.32 98 1010.5
20200330190009 40 223 3.0 6.0 0.14 0.78 0.32 97 1010.5
20200330185510 40 198 3.0 6.0 0.15 0.78 0.32 97 1010.5
20200330185010 41 9 2.0 3.0 0.14 0.77 0.31 97 1010.5
20200330184508 40 45 4.0 7.0 0.13 0.76 0.30 98 1010.5
20200330184009 41 315 3.0 9.0 0.11 0.74 0.28 96 1010.3
20200330183510 41 28 5.0 9.0 0.09 0.72 0.26 96 1010.3
20200330183010 43 305 9.0 17.0 0.07 0.69 0.23 97 1010.3
20200330182509 44 235 10.0 13.0 0.04 0.65 0.19 96 1010.0
20200330182010 44 239 6.0 10.0 0.05 0.64 0.18 95 1010.0
20200330181518 44 257 6.0 10.0 0.07 0.64 0.18 95 1009.9
20200330181009 44 262 5.0 8.0 0.07 0.64 0.18 96 1009.9
20200330180509 44 256 7.0 10.0 0.08 0.64 0.18 95 1009.8
20200330180010 44 202 7.0 10.0 0.08 0.64 0.18 98 1009.8
20200330175509 43 183 3.0 5.0 0.07 0.63 0.17 99 1009.8
20200330175012 43 225 3.0 5.0 0.07 0.63 0.17 99 1009.9
20200330174509 43 281 3.0 5.0 0.07 0.63 0.17 99 1009.9
20200330174011 43 234 5.0 5.0 0.07 0.63 0.17 99 1010.1
20200330173509 43 208 3.0 3.0 0.07 0.63 0.17 99 1010.1
20200330173009 43 219 2.0 3.0 0.06 0.62 0.16 99 1010.1
20200330172509 43 279 2.0 2.0 0.05 0.61 0.15 99 1010.0
20200330172010 44 207 1.0 2.0 0.03 0.59 0.13 99 1010.0
20200330171508 44 202 3.0 5.0 0.02 0.57 0.11 97 1010.0
20200330171009 44 205 4.0 6.0 0.02 0.57 0.11 95 1010.0
20200330170509 44 207 1.0 5.0 0.01 0.56 0.10 95 1010.1
20200330170012 44 248 4.0 6.0 0.01 0.56 0.10 95 1010.2
20200330165508 44 212 6.0 7.0 0.01 0.56 0.10 95 1010.2